Wind_Speed
50 49 49 49 48 48 47 47 46 45 45 45 43 42 44 47 49 50 50 49 48 48 48 46 46 44 42 41 41 41 41 42 42 44 47 43 39 38 38 36 36 38 39 39 39 37 36 34 32 31 31 30 29 27 24 23 22 22 22 22 25 25 23 19 14 12 9 4 2 3 7 9 11 13 12 12 12 10 10 10 9 8 8 8 8 8 7 6
50 51 51 51 51 50 49 48 47 46 45 44 43 42 42 43 46 49 49 49 48 48 47 47 47 46 44 43 42 42 42 43 44 48 46 39 39 40 37 36 37 38 38 38 38 38 37 36 34 33 32 31 31 29 27 25 24 24 23 25 28 27 25 20 15 14 12 10 6 4 9 11 13 15 15 14 13 11 11 10 9 8 7 7 7 8 8 7
48 50 51 52 52 52 51 50 49 47 46 45 43 41 41 40 41 45 47 47 48 48 47 47 47 47 46 45 44 43 43 43 46 49 43 37 40 40 37 37 38 39 39 37 37 38 39 38 36 35 34 32 31 31 30 28 26 25 24 26 28 27 26 22 17 16 14 13 10 9 11 13 14 15 16 15 14 13 11 10 10 9 9 8 7 7 7 6
46 47 49 51 53 53 53 51 51 48 46 46 44 41 41 40 39 42 45 45 46 47 47 46 46 47 47 47 45 44 43 44 48 47 40 40 42 39 38 38 38 39 40 39 38 39 39 39 39 37 35 34 33 33 32 30 28 27 28 29 29 28 28 25 21 18 17 16 15 14 12 12 14 15 16 17 17 16 12 11 12 11 10 10 8 7 6 6
44 46 46 48 51 53 54 53 52 50 48 47 45 43 41 41 39 39 42 44 44 45 47 47 45 46 46 47 46 45 44 43 47 46 41 42 41 38 38 38 39 39 39 40 41 41 41 40 40 38 37 36 34 34 35 32 30 29 30 30 29 30 30 27 23 21 19 18 19 15 10 9 13 14 16 18 19 18 16 15 14 12 11 11 10 8 5 5
40 43 45 45 47 50 54 54 54 53 51 48 46 44 43 43 41 38 39 42 43 43 44 46 46 45 45 46 46 46 46 41 40 43 44 43 39 37 38 38 40 39 40 41 42 42 42 41 40 40 39 38 36 36 36 33 32 33 31 31 31 32 32 29 26 23 21 21 21 18 11 10 13 15 18 20 21 19 19 19 16 13 12 12 12 9 7 6
35 38 42 43 44 47 50 53 55 54 52 50 47 46 45 43 42 40 37 38 41 42 42 44 44 45 45 45 45 47 50 46 39 38 40 41 39 38 38 38 40 41 41 41 43 43 43 42 41 41 40 39 39 38 36 34 34 35 33 32 32 33 34 33 30 26 24 23 23 23 19 16 15 16 19 22 22 20 19 18 16 14 14 15 14 11 10 9
35 36 38 38 41 44 47 50 53 55 55 53 47 47 47 44 43 41 38 37 38 40 42 42 42 43 44 45 46 49 54 50 43 41 38 37 36 37 39 39 41 43 43 42 42 43 43 43 42 41 41 41 41 40 38 36 36 37 37 34 33 35 35 35 34 30 26 25 25 26 26 23 20 19 22 23 22 20 17 16 15 15 15 17 17 16 14 13
34 35 37 37 37 40 43 46 50 53 55 56 50 47 48 45 43 42 41 38 36 39 41 41 41 40 41 45 47 52 56 48 42 43 41 39 36 35 37 39 41 43 43 42 42 43 43 44 42 41 41 40 40 40 39 39 40 40 38 36 35 36 36 35 36 34 31 28 27 29 30 29 26 24 25 25 22 21 19 19 19 18 18 18 18 19 18 17
33 34 36 36 36 37 40 42 46 50 53 56 55 51 49 46 44 42 42 40 37 38 39 41 41 39 41 43 47 54 55 47 42 42 42 42 41 38 36 35 37 40 43 43 43 44 44 43 41 39 39 38 38 38 38 40 43 41 37 37 37 37 37 36 36 36 34 31 30 31 32 31 30 29 31 29 24 23 24 24 25 23 22 20 18 19 20 20
32 33 35 36 36 36 38 39 40 45 49 53 56 54 51 49 46 43 43 41 38 37 37 38 39 40 42 43 49 56 53 47 45 43 41 42 42 42 40 35 33 35 40 43 44 44 43 42 40 37 37 36 37 37 37 40 41 40 38 36 36 36 37 38 36 35 34 33 32 32 34 35 35 35 35 33 28 26 27 27 28 27 25 23 21 20 21 21
32 33 34 35 35 35 37 38 38 40 44 49 53 55 52 50 48 45 44 42 40 38 37 37 37 40 41 44 51 54 50 46 46 45 42 41 41 42 41 38 35 33 36 40 43 43 42 42 41 39 36 35 36 35 37 40 39 39 38 37 37 36 38 39 37 34 34 35 33 30 34 40 41 40 38 37 35 32 31 30 29 29 28 26 25 23 22 21
31 31 33 34 34 34 35 37 38 37 40 45 50 53 54 52 49 46 44 43 40 39 37 36 37 39 41 48 52 50 46 45 47 48 43 39 39 40 40 39 37 35 34 36 39 42 42 42 41 39 37 35 35 35 35 38 38 38 37 37 37 36 41 43 37 34 33 35 33 30 35 41 42 41 39 40 40 37 35 34 32 30 30 28 27 26 24 23
30 30 31 33 34 34 34 36 38 37 38 41 44 50 54 53 50 46 44 43 40 37 37 35 36 38 41 49 51 47 43 43 48 51 47 40 37 37 39 38 37 35 34 35 36 39 41 41 39 38 37 37 36 35 36 36 36 37 36 37 37 39 46 46 40 38 36 35 32 30 37 42 41 39 39 40 40 38 37 36 33 31 29 28 28 28 27 25
30 30 30 31 32 33 34 35 37 37 37 39 40 44 51 54 52 47 46 45 41 38 37 35 35 36 41 47 49 46 45 46 48 50 49 45 39 35 37 37 35 34 33 34 34 37 40 39 38 39 39 38 36 35 35 35 36 35 34 36 40 43 47 45 43 44 41 36 32 31 36 40 40 39 38 38 39 38 37 36 35 33 30 29 29 29 28 26
30 30 29 30 31 32 33 34 36 37 36 37 38 41 47 52 53 49 48 45 41 39 38 39 39 37 41 46 45 45 47 49 48 46 47 47 42 38 36 35 33 33 32 31 32 34 37 37 38 40 41 40 39 37 34 33 34 35 37 40 44 47 47 45 45 47 44 40 35 34 36 37 38 38 36 36 37 37 37 37 36 34 32 30 29 29 30 28
30 29 28 29 30 31 32 33 35 36 36 35 38 41 43 49 52 50 50 45 40 41 41 42 42 38 41 42 42 44 47 49 47 44 46 47 43 40 38 36 34 33 32 31 31 33 34 36 39 41 43 41 41 40 34 31 34 38 41 43 45 46 45 45 46 46 44 42 39 39 41 41 40 40 38 37 36 37 37 37 35 30 27 27 27 28 30 31
29 29 28 28 29 31 31 32 34 35 36 35 37 40 40 45 50 50 52 47 38 40 42 42 42 39 40 40 41 42 42 45 47 43 44 46 45 41 39 37 34 31 32 33 32 33 34 37 40 42 45 44 44 45 41 41 45 46 44 44 44 42 42 43 44 43 42 41 41 42 45 47 45 43 43 41 39 38 38 36 34 30 27 26 27 28 28 30
29 28 27 28 29 31 31 32 33 35 36 36 36 38 39 42 48 49 53 50 39 40 46 47 47 44 40 41 42 42 39 39 45 46 43 45 46 43 38 36 34 32 34 35 35 35 35 38 41 43 47 49 50 52 54 54 49 44 45 47 45 41 41 42 42 42 41 39 40 44 47 49 46 45 45 44 42 40 39 37 37 36 33 29 27 27 28 29
29 29 28 28 30 31 32 32 33 34 36 36 36 39 41 43 49 52 53 53 47 45 48 49 50 46 42 42 40 41 42 38 42 47 44 42 43 41 36 34 35 36 37 39 39 38 37 40 46 49 52 54 54 53 54 52 43 38 41 43 43 40 41 44 42 42 42 39 41 44 47 48 47 45 43 43 43 43 41 39 38 38 36 34 31 28 28 29
29 29 29 29 30 32 31 32 33 34 36 38 38 42 46 46 51 56 54 55 52 47 47 49 48 46 44 43 39 38 41 39 41 43 41 41 40 38 35 34 37 40 40 41 40 39 39 43 48 50 51 53 54 52 48 46 43 41 38 37 40 41 43 43 40 40 40 39 43 45 46 49 47 43 41 41 44 46 44 41 39 39 37 37 35 33 32 33
28 28 29 29 30 31 31 31 32 33 37 39 40 44 48 46 48 54 51 52 56 50 47 51 50 48 46 44 42 38 36 37 41 41 39 40 40 40 39 37 39 41 40 41 42 40 38 43 47 47 49 51 51 51 48 45 45 44 39 34 38 41 41 39 39 39 36 37 43 44 45 50 49 45 43 42 45 49 48 47 46 44 43 41 38 37 37 38
28 28 29 29 30 31 31 30 31 34 38 41 43 46 49 44 44 50 45 44 54 54 48 52 55 53 49 45 44 41 35 35 39 41 41 41 41 42 41 39 39 39 41 44 46 44 41 45 47 45 46 50 49 48 46 46 46 46 44 40 41 43 39 36 38 37 34 36 41 43 45 49 48 44 45 43 43 47 48 50 50 49 49 48 45 42 40 39
29 29 29 30 30 32 32 30 32 36 40 42 43 44 47 43 42 49 45 38 47 53 50 51 56 57 52 46 45 41 34 31 33 36 39 42 43 42 42 40 38 40 43 45 46 48 49 48 48 45 45 48 47 44 44 45 46 48 48 47 46 46 41 40 39 32 29 33 38 40 39 45 49 45 44 41 38 41 45 47 49 50 52 51 49 48 45 42
29 29 30 30 30 32 31 32 37 38 38 42 43 43 45 43 41 46 44 38 41 46 47 51 56 56 52 47 44 40 32 29 31 32 35 41 44 43 43 40 40 43 44 43 44 48 51 47 46 47 46 47 46 45 46 45 46 48 48 49 49 45 41 38 34 26 24 27 34 35 24 32 46 45 45 45 40 42 44 45 47 49 51 50 50 50 47 46
29 30 30 30 31 32 32 35 38 37 39 42 42 42 42 42 41 42 41 38 41 45 46 53 59 57 54 50 45 39 32 32 32 30 31 36 39 42 43 42 42 43 43 43 43 45 47 45 47 49 47 47 46 46 48 46 45 46 47 49 47 44 40 35 30 26 26 27 33 33 22 24 36 36 37 39 37 40 43 45 48 47 48 49 50 50 48 46
29 30 29 31 32 33 35 39 37 37 40 40 39 40 41 41 40 42 39 27 31 47 50 51 57 58 57 53 49 41 31 31 33 31 33 34 35 39 41 44 44 43 43 41 40 43 45 46 49 51 47 46 47 47 47 47 46 48 50 47 44 44 43 39 34 28 28 28 28 31 30 27 34 39 38 34 31 35 39 44 49 49 48 48 48 47 46 45
30 29 29 31 32 34 37 38 37 37 39 38 38 38 39 41 39 43 37 13 10 35 47 49 54 56 55 51 52 48 34 29 33 35 35 32 33 38 41 43 44 43 44 42 40 43 45 47 50 52 47 42 46 48 44 43 45 48 48 43 42 44 44 44 40 35 33 28 22 27 29 21 30 46 42 36 38 40 43 47 49 49 48 47 47 45 44 44
29 30 30 30 31 34 36 37 37 36 36 36 36 36 39 40 37 40 32 12 10 24 35 45 51 52 52 49 49 49 38 29 29 32 35 31 31 37 40 42 41 41 43 43 43 42 40 44 46 48 48 45 47 47 44 43 41 42 45 40 37 38 39 40 40 41 37 26 23 31 31 17 24 45 41 35 44 48 50 51 47 48 47 47 48 47 46 45
27 29 30 30 32 35 37 38 37 36 35 35 35 36 39 39 40 34 18 11 19 23 27 39 49 54 54 50 49 49 42 32 27 28 33 32 32 35 38 39 40 42 42 40 43 44 41 40 40 43 48 49 50 46 45 45 39 38 40 34 27 27 32 32 32 38 28 15 24 37 39 25 19 39 46 42 50 52 51 52 48 47 46 45 46 46 45 45
26 28 29 32 34 35 38 39 37 36 35 36 36 37 38 41 43 28 9 13 23 23 30 37 44 53 55 52 51 50 45 36 30 29 34 36 35 38 39 38 39 40 40 41 44 46 44 39 37 40 45 48 48 46 44 44 41 40 36 31 24 18 22 23 22 27 14 5 24 38 41 32 21 38 50 44 50 53 50 52 51 49 47 46 46 46 45 43
25 28 29 32 34 35 38 37 36 36 35 38 38 38 40 38 35 24 15 21 21 22 35 40 42 51 55 53 52 54 51 43 36 33 36 41 40 43 44 43 45 39 34 41 44 44 47 46 40 37 40 44 45 44 42 40 41 41 37 32 22 9 9 12 9 12 9 11 28 36 35 32 32 49 56 48 51 54 51 53 53 51 50 49 48 46 44 42
24 27 29 33 35 37 38 36 35 36 37 39 36 40 43 29 21 28 31 26 16 21 37 41 45 52 55 54 51 54 53 44 41 36 34 41 42 43 44 43 47 42 36 43 44 37 35 41 43 36 34 40 44 45 43 42 45 46 44 39 25 8 4 7 7 6 10 18 32 39 33 23 27 47 57 55 57 56 55 57 55 56 54 51 49 46 43 40
24 27 30 33 35 37 38 36 35 37 39 39 36 41 41 21 16 33 43 31 15 22 38 42 45 49 53 57 55 55 51 41 42 40 36 41 42 42 44 43 44 44 42 42 42 37 27 28 43 46 42 41 44 50 49 47 48 48 49 46 36 24 13 6 7 7 9 14 23 29 22 8 15 41 56 55 52 51 53 55 52 53 52 47 45 42 40 37
25 27 29 32 35 37 38 37 37 39 40 39 39 42 39 27 23 33 45 42 24 27 40 42 45 48 47 51 53 56 54 44 43 43 39 43 45 44 46 46 46 46 44 37 35 40 34 32 45 53 53 50 43 44 48 44 40 41 44 43 41 42 32 17 13 15 15 13 14 19 20 13 15 36 50 48 48 50 50 49 45 45 45 42 41 40 38 35
25 28 29 32 36 37 39 38 39 40 40 39 40 43 42 38 34 31 40 51 40 33 43 43 46 51 46 42 46 53 54 45 44 44 40 43 45 44 45 46 47 49 48 42 37 36 32 35 47 45 47 56 50 41 42 41 35 35 41 45 46 49 45 29 17 16 15 10 12 20 27 27 21 29 45 49 49 49 47 47 47 44 43 41 39 39 37 35
23 26 28 31 34 36 38 38 39 40 39 39 41 42 42 43 42 33 32 47 50 41 43 43 43 48 45 39 40 49 50 42 40 41 39 39 40 43 46 44 46 49 49 46 40 37 34 36 44 42 39 51 56 46 39 39 37 34 39 46 46 43 39 28 13 9 10 6 9 20 29 32 23 22 39 49 48 47 47 48 47 44 42 41 40 38 36 33
20 23 26 30 32 34 36 37 40 39 36 38 42 42 42 44 47 39 30 36 46 45 42 39 39 45 46 41 40 48 50 43 41 40 37 35 34 40 47 46 45 47 48 46 39 35 35 28 31 41 43 42 46 44 38 38 40 38 38 41 38 29 27 24 12 5 9 7 6 17 26 31 31 28 34 45 46 44 44 43 43 42 40 37 36 33 31 30
17 21 24 28 29 31 35 36 37 37 36 39 44 44 43 44 47 46 37 32 36 43 45 40 39 44 47 47 47 49 51 47 45 44 39 36 37 42 48 47 46 46 47 49 43 34 32 25 19 30 40 36 33 37 40 42 42 41 40 41 37 31 29 29 21 11 9 7 7 13 15 18 31 38 38 46 49 43 39 34 32 34 32 31 32 32 32 33
16 19 22 24 27 30 34 35 33 35 38 41 43 44 45 45 46 47 45 41 37 40 47 45 43 46 48 49 49 50 52 51 49 48 44 43 44 44 47 49 48 47 47 49 46 35 28 26 21 19 25 31 32 35 44 48 47 46 46 44 39 34 28 23 23 23 16 7 4 8 8 11 25 35 39 49 52 46 41 36 34 36 37 37 37 34 32 29
15 18 19 22 27 31 33 33 33 36 38 40 42 43 44 45 45 44 44 45 43 41 44 45 45 49 51 49 48 49 50 49 49 48 46 46 46 43 47 54 54 49 46 48 49 41 30 28 29 22 21 30 35 39 45 46 47 48 50 51 46 41 32 15 10 19 21 13 7 5 4 9 17 24 32 43 45 42 41 38 36 36 36 35 29 24 23 24
14 16 17 21 27 31 32 32 32 35 38 41 42 42 43 43 40 41 45 45 44 45 43 42 43 46 51 52 50 50 50 49 50 50 48 51 53 50 47 49 53 50 45 46 50 47 37 27 25 23 22 26 28 32 37 37 41 44 46 50 49 44 40 25 12 17 21 19 16 11 6 7 10 13 20 32 37 36 34 30 26 23 23 24 22 21 22 23
14 14 16 21 25 30 32 33 33 35 38 40 42 42 44 45 39 37 44 45 43 45 43 41 43 44 48 51 49 50 50 46 49 53 52 53 54 51 43 39 45 49 45 43 46 47 39 30 26 23 20 21 23 27 31 32 36 40 41 46 47 45 47 43 38 36 30 23 20 11 6 9 14 18 24 31 37 37 34 32 30 25 23 23 23 24 23 22
13 15 18 21 25 29 33 34 35 38 39 39 41 42 44 46 42 36 40 44 43 45 43 42 44 44 46 48 46 49 49 41 43 50 49 48 49 47 42 36 38 44 46 47 48 47 41 37 33 20 9 11 16 18 23 29 35 40 42 44 46 48 48 46 46 43 32 30 29 15 8 14 21 29 36 37 40 42 41 41 39 35 32 31 31 33 32 29
14 16 18 21 25 30 34 35 35 37 40 38 39 43 45 45 43 36 35 41 43 44 43 42 43 42 43 44 41 44 49 42 38 44 46 44 44 43 42 39 37 40 44 47 47 44 42 42 39 25 11 8 12 17 26 35 38 39 42 44 45 48 48 43 41 33 21 27 34 25 19 25 30 38 46 48 49 50 46 44 44 42 41 40 40 41 41 38
17 18 18 22 26 29 32 34 34 35 39 39 37 40 44 46 44 36 35 41 44 43 42 39 40 39 38 40 38 38 45 45 36 37 43 45 44 42 42 42 39 37 37 40 43 42 41 44 44 40 34 30 32 36 38 37 36 37 41 44 44 45 46 42 37 32 25 26 34 35 32 32 36 45 53 55 55 55 53 50 50 49 49 48 46 46 45 42
17 19 21 26 27 27 31 33 33 34 36 38 37 36 39 45 45 39 38 43 44 43 41 35 35 38 37 38 39 38 42 45 39 34 37 44 45 40 38 39 37 34 31 32 37 40 39 42 45 47 48 48 46 42 32 26 26 30 33 38 40 41 43 42 39 39 37 26 26 36 36 31 36 46 53 56 56 56 57 56 56 55 53 51 49 48 46 44
18 17 19 26 26 27 33 35 35 36 35 38 39 35 33 38 42 41 40 42 42 41 41 36 33 37 39 38 39 40 40 43 42 37 34 39 43 37 33 34 34 31 28 28 33 37 38 41 45 46 46 48 47 42 34 28 24 21 19 23 29 31 34 39 41 45 43 33 29 35 34 30 33 38 47 54 54 53 55 57 57 54 52 50 48 46 45 44
19 17 17 24 27 27 32 35 35 36 36 37 39 37 33 32 35 39 41 43 43 39 39 40 38 38 39 38 37 39 41 40 42 42 38 37 40 37 33 35 35 33 31 33 35 37 37 38 40 39 40 44 44 42 41 38 33 29 25 22 23 23 24 28 31 33 37 38 38 39 40 41 37 36 44 50 48 49 51 51 51 50 49 48 46 44 43 42
17 19 18 23 30 29 28 31 34 35 35 36 38 39 37 34 32 34 38 44 46 42 39 43 44 40 37 36 36 38 40 39 39 42 39 35 36 37 36 37 39 37 36 36 37 37 36 34 33 34 34 37 40 41 40 40 39 38 36 33 31 30 29 30 31 31 32 34 36 36 40 45 39 35 41 46 46 49 51 50 50 49 48 49 48 47 45 44
15 19 18 19 25 29 27 28 32 34 35 37 38 37 37 37 36 33 34 40 46 45 43 42 41 39 37 36 38 40 38 35 34 35 34 32 33 34 34 36 39 40 39 38 37 38 36 31 29 29 28 31 36 35 34 35 33 32 36 39 39 40 42 42 42 42 39 36 35 34 37 42 42 39 41 45 47 50 52 53 53 51 49 51 51 50 49 48
14 17 18 16 17 23 26 27 29 33 35 38 39 38 37 37 36 34 33 37 43 44 43 37 34 36 40 40 41 41 37 33 33 32 31 31 31 30 31 32 34 39 41 40 38 38 38 35 29 25 25 28 27 23 23 22 16 21 35 42 42 44 45 45 45 44 43 41 40 40 43 47 48 45 44 48 50 50 51 52 52 52 52 52 51 48 47 45
Wind_Direction
239 237 237 237 237 236 235 235 234 234 235 236 237 237 237 236 235 234 233 233 233 232 232 232 232 231 231 232 233 235 235 234 232 232 232 230 231 230 227 225 226 229 231 232 233 234 235 236 238 239 241 241 240 239 238 237 238 239 236 234 237 238 239 233 219 219 229 257 349 334 290 284 285 286 292 297 303 305 300 299 306 320 330 336 333 322 311 302
241 238 236 235 235 235 234 233 233 233 233 232 234 236 237 236 236 235 234 234 234 233 232 233 233 231 231 231 232 234 235 236 235 234 233 230 230 229 227 224 223 227 230 232 234 234 235 235 237 239 241 242 241 240 239 236 236 238 237 237 236 235 240 238 226 226 236 243 240 284 289 282 280 280 282 288 294 300 302 296 295 307 309 313 323 324 319 313
244 241 237 234 234 234 233 232 231 231 231 230 231 234 235 236 237 237 235 235 235 235 234 233 233 232 232 231 231 233 234 236 237 235 233 231 231 229 227 226 223 224 227 229 232 234 234 234 234 236 239 241 240 241 240 236 235 236 237 238 234 234 242 242 233 230 238 247 245 260 279 278 276 277 278 280 282 290 304 297 288 291 290 296 307 315 317 314
247 244 240 236 233 232 232 231 230 229 230 229 229 231 233 234 237 238 237 235 235 235 235 235 234 232 232 232 233 233 234 237 238 236 233 232 231 228 226 227 223 223 225 226 228 231 232 232 232 233 236 238 238 240 241 238 235 235 237 238 233 235 244 243 239 237 239 249 251 261 278 274 266 266 268 271 273 279 294 298 291 287 284 288 292 299 314 318
249 247 244 240 236 233 231 231 229 228 228 227 227 229 230 231 233 238 240 238 236 235 235 236 236 234 233 233 233 234 235 238 240 237 233 232 232 229 226 227 225 223 223 224 225 228 230 232 232 232 232 235 236 237 240 239 238 237 238 239 234 237 244 242 241 241 240 244 246 257 273 257 250 253 259 265 269 270 278 289 292 287 281 279 279 284 300 314
251 249 247 244 239 235 231 230 229 228 227 226 227 228 228 228 229 233 240 241 239 237 236 236 236 236 235 234 234 234 234 235 238 238 233 232 231 230 227 226 227 224 222 223 224 226 228 230 232 233 232 233 235 237 239 241 242 241 241 240 234 237 242 241 242 241 237 236 236 242 246 239 245 250 255 261 264 266 272 281 284 283 281 276 273 274 279 292
252 250 249 247 244 239 234 231 228 227 226 225 226 228 227 226 227 228 234 240 240 238 237 237 237 237 237 236 235 234 232 230 233 237 235 233 230 229 228 224 225 225 222 221 223 225 226 227 230 234 235 234 234 236 238 240 243 244 244 242 237 238 241 241 243 242 237 233 229 233 236 236 241 249 255 257 259 264 268 269 272 278 283 283 281 279 276 282
251 250 248 249 248 243 238 233 229 226 225 223 223 227 227 225 226 226 230 234 238 240 239 238 238 238 238 238 237 236 233 228 230 236 236 235 231 228 229 225 224 225 224 221 222 225 227 227 228 231 235 236 236 237 237 239 242 244 245 245 241 240 242 243 246 246 240 234 229 230 234 236 239 248 253 254 256 258 257 255 264 274 279 283 288 288 284 282
249 248 246 246 247 246 241 236 231 227 225 222 221 224 225 225 225 225 228 230 234 239 240 241 240 239 239 239 238 238 233 228 230 236 238 237 234 231 229 228 227 226 225 223 221 223 226 227 226 228 233 237 239 239 239 239 241 243 244 246 245 243 244 245 248 250 247 239 231 230 232 234 239 248 251 251 253 254 249 250 261 269 272 275 280 284 286 285
246 246 245 244 244 245 243 240 235 230 226 223 221 221 223 224 224 224 226 227 231 236 239 240 241 241 241 238 238 236 231 228 230 233 236 235 234 234 231 229 228 228 227 224 221 221 223 225 226 226 230 234 237 239 239 240 242 244 245 246 247 246 246 247 248 251 252 247 238 234 233 232 239 248 249 247 249 251 250 252 260 266 268 268 269 271 276 282
246 245 244 242 242 242 242 241 238 234 229 225 222 221 222 223 223 224 225 225 228 232 235 237 239 242 242 241 238 233 229 228 229 231 233 233 233 235 235 231 228 227 228 226 224 223 222 224 224 225 228 230 232 235 236 238 242 244 244 245 245 246 246 247 249 250 251 251 244 240 238 235 238 245 247 247 247 248 251 255 263 268 269 268 267 267 268 274
246 244 243 241 241 241 241 239 237 236 232 227 223 220 220 221 222 223 224 225 226 228 233 235 237 239 242 244 238 231 229 229 230 233 234 233 233 234 235 234 231 227 227 228 226 225 224 223 223 224 226 229 230 231 233 234 238 241 242 243 243 245 244 244 247 248 247 249 247 244 244 239 239 242 244 249 250 250 253 256 262 267 269 270 270 269 268 271
245 243 242 241 238 239 240 238 235 235 233 229 225 220 218 218 221 222 222 223 225 228 230 233 238 239 241 243 236 231 231 229 231 234 234 233 232 234 236 235 234 230 228 228 227 225 224 223 223 224 226 230 232 232 233 233 235 238 240 241 241 242 243 241 241 244 245 246 245 245 248 244 242 243 243 248 252 254 255 257 260 265 268 270 269 269 270 271
247 241 240 240 237 236 237 237 235 234 233 231 227 222 219 217 218 222 223 223 224 227 227 227 230 234 240 242 238 235 232 229 232 232 233 234 230 231 235 235 234 232 229 228 226 223 223 223 221 223 226 230 232 233 235 234 235 237 237 239 239 239 243 241 238 241 244 245 245 242 248 249 246 246 245 247 252 255 257 258 260 261 264 267 268 269 271 271
249 242 239 239 238 236 234 235 235 233 232 229 227 224 220 216 216 219 221 223 224 224 226 226 222 223 234 241 239 237 233 231 231 230 231 234 231 228 232 234 232 229 228 227 226 222 220 220 219 219 224 227 229 231 231 229 231 233 232 234 236 237 242 243 239 241 243 245 245 239 245 251 250 249 248 249 253 257 261 261 260 260 261 265 268 269 271 272
251 244 240 239 238 237 233 233 233 232 230 227 226 225 221 217 215 218 219 222 226 225 225 228 224 220 230 239 238 235 234 232 229 230 232 233 233 230 229 233 230 225 225 224 225 222 217 216 216 217 221 225 226 227 225 222 224 228 229 232 235 237 240 241 240 241 242 244 242 238 243 249 252 253 251 252 256 259 262 263 263 265 263 263 265 266 266 267
251 246 241 239 238 237 234 231 230 230 228 227 225 223 222 218 215 217 219 221 225 225 225 226 224 220 224 234 236 233 234 232 229 231 232 232 234 232 228 229 228 223 220 218 223 223 216 213 213 215 219 222 226 226 219 211 214 221 225 230 235 237 237 238 239 241 241 242 242 243 247 250 253 257 256 257 261 263 264 265 266 265 262 260 260 261 262 263
250 247 243 240 239 237 234 231 229 229 227 226 226 222 221 220 216 217 218 219 222 224 226 223 217 215 219 228 233 233 233 231 229 230 231 231 231 231 227 224 223 220 215 213 217 221 217 214 212 214 217 220 224 223 217 214 218 219 220 225 230 234 236 238 239 240 241 243 243 245 250 253 254 257 257 258 262 264 264 264 263 261 262 263 257 255 258 260
251 248 245 242 240 237 234 232 228 227 225 224 226 221 218 218 218 218 217 217 216 215 218 216 212 213 220 229 232 233 232 229 227 226 228 230 229 228 223 218 217 214 211 209 211 215 215 212 211 213 215 217 220 222 222 225 225 223 224 227 229 230 234 238 239 240 243 246 246 246 249 253 254 255 256 257 259 262 263 262 261 261 262 262 258 254 254 255
251 248 247 243 239 237 234 231 227 225 224 222 222 219 214 213 215 218 217 216 214 213 217 218 218 218 221 227 228 229 229 224 224 223 223 224 225 227 221 212 212 209 209 209 209 213 214 211 210 213 214 214 217 223 227 229 226 226 229 231 232 232 235 239 240 241 242 244 248 251 253 255 256 255 255 256 257 258 259 260 261 262 261 258 256 256 255 255
250 248 247 243 239 238 234 231 226 224 223 221 220 217 214 212 213 215 216 217 215 215 219 222 224 222 221 227 227 226 226 222 224 224 222 224 224 224 220 211 209 209 210 210 209 211 215 216 215 217 219 217 219 224 228 229 227 228 228 230 234 236 238 241 242 242 242 244 249 252 254 256 256 255 254 254 255 256 257 259 261 263 262 260 256 254 255 258
249 246 245 244 240 238 236 232 226 223 223 221 221 218 215 214 215 215 216 220 218 216 219 221 224 222 220 226 229 226 224 219 221 221 218 221 220 220 221 213 209 212 211 209 208 209 216 221 221 221 223 221 222 226 229 231 231 229 227 229 235 238 241 244 245 244 242 244 250 252 253 256 257 256 255 254 254 256 258 259 261 262 263 263 261 258 258 260
247 244 243 243 240 237 236 233 227 223 222 220 221 219 215 215 216 214 217 224 221 219 220 220 223 222 216 219 227 228 225 218 218 218 214 215 216 217 219 213 210 212 210 208 209 210 215 221 221 221 222 221 223 226 229 231 231 230 229 230 234 238 240 243 245 246 244 245 251 255 257 259 259 258 256 254 253 254 257 259 260 261 261 261 263 264 263 262
245 242 241 240 238 236 234 232 227 223 221 221 221 218 215 216 214 212 217 225 223 221 224 223 224 223 216 216 224 227 225 220 218 219 217 217 217 215 216 215 213 212 210 210 212 214 218 220 221 221 221 223 225 226 227 229 230 232 232 232 235 238 239 243 246 248 250 250 252 255 260 261 257 257 256 253 251 251 253 256 256 257 259 260 262 264 264 264
247 241 238 236 235 233 232 230 226 223 222 221 220 217 215 215 213 212 217 226 227 224 223 224 225 223 218 215 220 225 226 221 217 218 220 222 221 217 214 213 213 212 213 214 214 217 221 222 223 222 221 223 227 228 226 226 229 232 232 232 235 238 239 241 243 242 239 240 245 246 252 262 258 255 257 255 252 252 253 254 255 256 257 258 260 263 264 265
248 241 236 233 231 229 228 228 225 222 222 220 219 217 213 213 213 209 215 229 234 228 219 217 220 221 219 215 216 220 224 224 218 214 219 222 223 222 216 209 208 213 216 215 214 217 223 223 223 225 224 223 226 229 230 227 227 231 233 233 234 234 234 237 236 230 225 230 243 240 234 258 263 258 258 257 254 253 254 254 255 255 256 256 258 261 263 264
248 239 234 230 227 225 224 225 224 221 221 220 217 216 211 211 212 206 213 233 237 228 222 214 213 217 218 216 215 213 213 220 215 209 214 216 216 219 217 212 210 211 213 212 212 217 222 220 220 224 225 224 223 226 230 228 227 232 236 236 236 233 232 233 231 225 226 234 242 238 232 248 262 260 257 256 254 254 254 252 253 254 255 255 256 258 261 264
245 238 232 228 225 224 225 227 225 220 221 219 215 215 210 210 211 204 210 234 223 221 224 217 212 215 217 215 211 208 208 215 213 208 211 211 210 212 213 216 218 216 211 208 211 218 223 220 218 220 221 223 223 223 225 226 226 233 238 238 238 238 236 235 233 230 231 234 235 229 226 236 257 258 257 256 254 253 254 254 253 252 253 255 256 258 259 261
243 236 231 226 223 223 224 226 226 222 222 219 215 213 209 209 208 203 212 228 185 203 217 215 211 211 213 212 206 205 205 208 212 210 206 202 204 209 211 214 218 218 212 210 214 219 224 225 222 222 222 223 225 224 224 224 224 229 233 236 238 239 238 237 237 235 232 232 232 226 220 222 255 256 252 251 252 253 255 257 256 255 256 257 258 260 261 261
240 235 231 225 221 220 219 221 222 219 219 218 215 211 208 207 203 202 217 219 197 198 200 203 207 207 208 207 203 203 202 202 207 206 200 198 199 205 212 212 211 213 210 211 217 220 223 228 226 225 226 227 228 228 229 229 229 228 227 227 231 236 237 238 237 236 234 231 231 230 226 222 250 257 249 247 252 256 259 260 260 260 261 262 262 264 266 266
238 235 231 226 222 220 218 219 219 215 215 215 213 209 207 205 202 204 221 205 202 199 188 190 198 203 206 203 198 199 200 203 206 200 196 196 194 198 205 206 204 207 211 213 217 220 222 226 227 226 228 228 229 230 231 232 231 232 233 229 229 233 235 236 230 228 228 225 232 234 231 221 229 251 251 250 254 258 261 262 263 264 266 267 267 268 269 270
237 234 231 226 224 220 219 221 217 213 213 211 210 207 204 202 204 209 210 207 207 191 185 186 189 197 205 204 198 198 198 200 203 200 199 196 193 198 202 202 198 197 204 210 214 219 220 222 223 225 226 225 225 226 228 230 228 230 234 230 226 217 216 222 213 219 228 234 237 237 233 226 231 245 250 252 255 257 260 263 266 267 268 269 270 271 272 274
237 233 229 224 222 220 219 219 214 212 213 210 207 205 203 204 212 210 205 204 203 190 191 191 190 197 202 198 196 197 196 197 198 198 202 201 197 199 202 204 201 196 198 205 209 215 221 225 224 223 224 223 223 221 220 223 223 224 223 218 214 198 200 218 199 218 236 235 239 240 238 231 232 246 252 253 255 259 261 263 266 267 269 270 271 274 276 276
239 230 226 222 220 219 217 214 210 211 213 210 206 203 203 209 219 209 208 206 193 190 197 194 190 193 196 195 196 196 192 194 198 196 199 201 197 196 200 203 202 202 202 202 205 207 211 223 222 220 221 220 221 222 222 223 223 224 223 219 217 215 221 231 208 219 239 241 241 235 231 212 220 245 254 255 257 259 260 262 265 267 269 271 272 273 274 274
239 229 223 219 217 215 213 210 207 209 212 208 204 202 202 209 214 210 212 214 202 181 189 195 191 186 189 194 195 196 195 195 196 196 197 199 198 197 199 201 201 202 202 200 203 207 209 220 220 219 221 220 220 222 223 223 223 227 225 221 222 225 229 239 236 231 232 242 237 220 221 221 226 247 253 255 259 258 257 260 262 264 266 269 270 270 270 272
234 225 219 215 214 212 210 208 206 208 211 206 203 203 203 207 211 212 213 215 213 188 178 187 189 182 183 190 189 193 197 193 191 193 197 201 203 202 201 202 202 201 202 202 203 203 209 223 223 220 223 223 223 223 219 217 219 222 219 218 224 227 229 235 246 239 227 234 230 217 228 234 235 252 253 253 258 257 257 259 259 262 264 265 265 264 267 272
232 224 218 215 212 209 208 208 207 207 208 206 206 207 207 209 211 214 213 213 216 204 181 179 182 180 180 183 187 190 192 192 190 190 194 199 203 205 204 205 205 205 206 206 206 206 209 221 224 220 222 225 225 226 225 222 222 219 217 221 226 225 225 226 237 242 222 236 228 213 226 232 226 243 253 253 255 255 256 258 259 261 262 262 262 262 267 271
232 223 218 215 210 206 205 206 207 207 204 205 210 213 212 212 213 215 216 213 216 213 194 180 180 183 181 179 185 190 190 193 194 192 194 198 204 208 206 206 208 209 210 208 208 213 212 219 229 225 224 225 223 224 226 228 229 228 227 227 222 220 224 220 216 230 223 236 235 214 225 230 219 222 246 254 255 256 258 259 259 260 260 260 261 262 267 270
226 217 215 213 207 203 203 204 205 206 204 205 212 216 215 215 215 216 218 215 214 211 202 190 183 184 186 186 186 188 190 194 194 194 196 199 207 212 209 207 209 210 210 208 208 212 214 217 229 229 227 226 220 216 218 221 225 228 232 230 221 218 225 223 219 223 222 231 241 225 225 230 225 226 240 254 257 257 256 254 255 258 259 260 263 266 271 275
217 212 209 205 201 200 201 202 202 201 203 208 212 215 216 217 217 217 217 218 216 208 201 196 189 185 188 192 190 188 192 195 195 195 198 202 207 212 212 211 212 212 209 208 208 210 212 215 222 225 220 217 213 214 220 222 220 220 225 229 227 223 226 230 227 223 221 222 236 232 223 227 232 232 240 253 258 256 253 254 256 261 265 267 269 271 270 271
211 207 202 197 196 197 196 199 201 200 204 210 212 213 216 217 219 218 215 213 215 213 203 195 193 191 191 193 192 190 190 194 196 196 199 204 206 211 214 213 214 214 207 204 206 208 207 211 217 213 200 206 216 223 227 227 224 222 224 227 229 228 228 241 246 228 226 224 217 227 235 237 236 234 239 250 256 256 256 260 263 264 265 264 262 256 251 253
208 203 197 195 195 194 194 198 202 202 206 212 213 214 214 216 221 222 215 207 205 207 203 196 196 195 192 194 195 193 191 192 196 198 201 207 210 213 214 212 213 213 207 204 206 208 207 209 213 212 208 216 224 226 227 229 228 228 229 231 232 231 228 230 235 239 242 240 236 240 252 241 224 222 240 252 256 257 257 259 260 256 254 253 248 242 242 248
203 199 195 197 197 196 195 197 201 202 207 213 215 216 215 217 222 222 216 211 206 203 199 197 198 196 194 195 195 194 192 191 197 201 204 209 212 214 214 211 211 211 208 208 208 207 209 212 213 214 219 225 225 225 227 228 227 226 228 232 234 233 232 234 237 242 248 248 244 247 252 235 229 239 252 258 259 260 261 261 259 255 251 251 251 250 249 251
198 197 195 194 196 198 198 200 201 201 206 212 215 217 217 219 224 222 213 210 208 205 202 199 199 198 196 196 196 196 194 193 198 203 206 210 213 213 213 213 212 210 209 210 210 208 207 211 214 210 211 224 224 228 228 223 223 225 227 231 233 235 236 237 239 242 246 248 246 249 251 242 246 255 258 260 261 262 264 264 263 262 260 258 258 259 259 261
197 199 194 188 191 198 202 205 206 204 205 210 216 219 218 219 224 227 217 209 204 203 204 203 203 203 199 198 198 198 198 198 200 203 206 212 215 214 213 215 216 215 214 214 214 211 207 209 212 206 195 202 210 220 225 223 222 222 226 230 232 234 234 232 233 234 239 246 244 243 248 249 252 257 259 260 261 263 265 266 268 271 271 269 269 268 268 269
199 198 189 185 190 200 204 206 209 209 207 209 215 221 221 220 223 223 215 207 202 200 200 202 205 205 201 200 199 199 202 204 206 208 209 212 216 216 214 215 217 218 218 216 215 214 212 213 215 214 214 217 219 223 226 225 223 222 226 230 230 232 232 231 231 232 237 246 245 245 249 252 252 256 259 261 262 264 266 268 272 275 276 276 276 275 275 274
201 202 193 184 186 198 205 206 208 212 212 211 215 219 218 220 223 222 211 203 202 202 198 199 202 203 202 201 200 203 207 208 210 215 215 214 216 217 214 214 216 217 217 216 214 214 213 215 220 222 224 227 229 229 228 228 229 231 233 235 235 234 233 231 231 235 238 241 248 250 250 251 252 256 260 262 263 265 266 268 272 275 276 277 277 277 277 273
201 207 204 192 189 197 204 205 206 211 214 215 219 222 217 214 218 222 216 207 204 204 200 199 202 205 207 205 202 204 205 206 211 215 217 215 213 211 206 207 210 211 210 211 214 214 214 218 223 224 227 232 233 232 233 234 236 237 235 237 241 241 240 238 238 240 240 241 248 252 252 252 253 257 261 263 265 267 267 267 270 272 274 275 275 276 276 272
205 208 208 202 202 205 206 206 206 210 213 214 220 226 223 215 215 219 218 212 207 204 201 202 203 206 209 207 204 204 203 203 208 212 214 212 209 205 199 198 203 204 204 208 211 212 215 221 225 226 230 235 237 237 239 241 243 245 242 239 240 241 244 248 250 250 249 249 253 256 256 256 255 257 263 265 266 266 266 266 267 268 271 274 277 278 279 277
212 211 212 209 209 212 213 211 210 212 215 215 218 224 226 225 223 220 216 211 207 203 202 205 205 204 204 205 207 210 211 211 211 212 212 209 205 203 200 198 199 198 202 209 210 210 214 220 225 227 231 238 240 241 243 244 245 248 250 250 249 249 250 250 253 255 252 251 256 258 258 259 260 260 263 266 267 267 267 267 266 267 270 274 277 279 279 279
221 214 218 220 214 212 215 216 213 213 215 216 218 220 223 226 227 226 222 216 211 207 205 207 206 203 202 206 212 216 218 220 220 219 219 217 212 208 205 204 201 196 198 205 209 211 211 213 220 222 226 237 241 240 242 244 247 250 251 251 250 249 250 249 250 251 251 253 257 257 256 261 266 266 266 268 268 267 268 268 268 269 270 272 275 276 277 278
231 220 221 229 223 217 219 219 215 214 216 218 218 218 220 224 225 224 221 217 214 212 208 205 203 202 203 208 216 218 218 220 223 224 225 224 221 215 210 211 207 200 197 199 206 211 211 210 211 209 216 234 241 237 237 240 247 250 248 249 249 248 250 252 252 253 254 254 255 255 257 265 270 271 268 267 265 264 266 267 268 269 269 271 273 273 275 277
Height
3048 3051 3053 3056 3058 3061 3063 3066 3069 3071 3074 3076 3078 3080 3082 3084 3086 3088 3090 3093 3096 3099 3101 3103 3105 3108 3111 3113 3114 3116 3117 3118 3120 3120 3121 3129 3136 3138 3141 3146 3149 3150 3151 3153 3155 3158 3160 3162 3164 3165 3165 3167 3168 3170 3172 3172 3173 3173 3174 3174 3174 3174 3175 3177 3180 3181 3181 3181 3181 3182 3183 3183 3183 3182 3182 3182 3182 3183 3183 3183 3183 3183 3183 3182 3182 3182 3182 3181
3042 3044 3047 3050 3052 3055 3058 3061 3064 3067 3070 3072 3074 3077 3079 3080 3082 3084 3087 3089 3091 3095 3097 3099 3101 3104 3107 3109 3110 3112 3113 3115 3116 3114 3119 3129 3132 3133 3138 3142 3145 3146 3149 3151 3153 3156 3157 3159 3161 3162 3163 3164 3166 3168 3169 3170 3170 3170 3171 3172 3172 3173 3174 3176 3179 3179 3180 3180 3180 3181 3181 3182 3181 3181 3182 3182 3182 3182 3182 3182 3183 3183 3183 3182 3182 3182 3181 3181
3035 3038 3041 3044 3047 3050 3053 3056 3059 3062 3065 3068 3070 3073 3075 3077 3079 3081 3083 3085 3087 3090 3093 3095 3098 3100 3102 3104 3106 3108 3110 3111 3110 3111 3121 3127 3126 3130 3135 3138 3141 3143 3145 3148 3150 3152 3153 3156 3157 3158 3160 3162 3164 3166 3166 3167 3168 3168 3169 3169 3170 3172 3172 3175 3177 3178 3179 3179 3179 3179 3179 3180 3180 3180 3180 3181 3181 3181 3181 3181 3182 3182 3182 3182 3181 3181 3181 3181
3029 3032 3034 3038 3041 3044 3047 3051 3054 3057 3060 3063 3066 3069 3072 3074 3076 3077 3079 3081 3083 3086 3088 3091 3093 3096 3098 3100 3102 3104 3106 3107 3105 3110 3120 3121 3121 3127 3131 3134 3137 3139 3141 3145 3146 3147 3149 3152 3153 3155 3157 3159 3161 3162 3163 3164 3166 3166 3165 3166 3169 3171 3170 3173 3175 3176 3177 3177 3177 3177 3177 3178 3179 3179 3179 3179 3179 3180 3180 3180 3181 3181 3181 3181 3181 3181 3181 3180
3024 3026 3029 3032 3035 3038 3042 3045 3048 3052 3055 3059 3062 3065 3068 3070 3072 3074 3076 3078 3080 3082 3085 3086 3089 3092 3094 3096 3098 3100 3102 3103 3102 3107 3114 3115 3118 3124 3128 3130 3133 3135 3138 3140 3142 3143 3145 3147 3150 3152 3153 3155 3158 3159 3159 3162 3164 3163 3163 3165 3169 3169 3168 3171 3173 3174 3174 3175 3175 3175 3176 3177 3177 3177 3178 3178 3178 3179 3179 3179 3180 3180 3180 3181 3181 3181 3180 3180
3020 3021 3023 3026 3029 3032 3036 3039 3043 3047 3050 3054 3057 3061 3064 3066 3069 3072 3073 3075 3077 3079 3081 3083 3085 3087 3090 3092 3094 3096 3097 3099 3099 3103 3108 3112 3117 3121 3124 3127 3129 3131 3134 3135 3137 3139 3141 3144 3146 3148 3150 3152 3154 3155 3157 3160 3161 3160 3161 3163 3167 3166 3166 3168 3169 3170 3171 3172 3173 3174 3174 3175 3175 3176 3176 3176 3177 3178 3178 3178 3178 3178 3179 3179 3180 3180 3180 3180
3016 3017 3018 3021 3024 3027 3030 3034 3037 3041 3045 3049 3053 3056 3059 3062 3066 3068 3070 3071 3073 3076 3078 3080 3081 3083 3086 3087 3089 3090 3090 3095 3097 3099 3104 3108 3114 3117 3119 3122 3124 3126 3129 3131 3133 3135 3138 3140 3143 3145 3147 3149 3151 3153 3155 3158 3158 3157 3158 3161 3164 3165 3164 3166 3166 3167 3169 3170 3171 3172 3171 3172 3173 3173 3173 3173 3175 3177 3177 3177 3177 3177 3177 3178 3178 3179 3179 3179
3012 3013 3014 3017 3019 3021 3024 3028 3032 3036 3040 3044 3048 3052 3055 3058 3061 3064 3067 3068 3070 3072 3074 3077 3078 3080 3082 3081 3084 3083 3083 3092 3097 3097 3102 3106 3110 3113 3114 3117 3119 3121 3124 3127 3130 3133 3135 3137 3140 3142 3143 3145 3148 3150 3153 3155 3154 3153 3155 3158 3162 3163 3163 3164 3164 3165 3167 3168 3169 3169 3169 3170 3170 3170 3170 3171 3173 3175 3175 3175 3175 3175 3176 3176 3177 3178 3178 3179
3008 3009 3011 3012 3014 3016 3019 3022 3026 3030 3034 3039 3043 3047 3051 3054 3057 3060 3063 3065 3068 3069 3071 3074 3075 3077 3077 3078 3079 3077 3080 3092 3097 3096 3099 3102 3106 3108 3110 3112 3115 3118 3121 3124 3127 3129 3130 3133 3136 3139 3140 3142 3146 3148 3150 3151 3149 3149 3153 3156 3159 3160 3161 3162 3162 3162 3164 3165 3166 3166 3167 3168 3168 3168 3167 3168 3171 3172 3173 3173 3173 3173 3174 3175 3175 3176 3176 3177
3004 3005 3006 3008 3010 3012 3014 3017 3021 3025 3029 3033 3038 3042 3046 3050 3053 3056 3059 3063 3064 3066 3068 3069 3072 3073 3073 3074 3073 3071 3079 3091 3094 3093 3094 3097 3101 3103 3106 3109 3112 3115 3118 3120 3122 3124 3126 3130 3134 3137 3138 3140 3141 3144 3146 3147 3146 3148 3151 3153 3155 3157 3158 3158 3159 3160 3161 3163 3164 3164 3164 3166 3166 3164 3163 3166 3169 3170 3170 3171 3171 3171 3172 3173 3174 3174 3175 3175
2999 3001 3002 3004 3006 3007 3010 3013 3016 3019 3023 3028 3033 3037 3041 3045 3049 3052 3055 3058 3061 3063 3064 3066 3068 3068 3069 3070 3067 3069 3079 3087 3089 3089 3089 3093 3097 3099 3102 3106 3109 3112 3114 3116 3119 3121 3125 3128 3132 3134 3135 3136 3138 3140 3141 3142 3144 3146 3149 3150 3151 3153 3154 3154 3155 3157 3159 3159 3161 3162 3161 3162 3162 3160 3161 3164 3166 3167 3168 3168 3169 3169 3170 3171 3171 3172 3173 3173
2995 2997 2999 3000 3002 3004 3006 3008 3011 3015 3018 3023 3027 3032 3037 3041 3044 3048 3052 3055 3057 3060 3061 3063 3064 3064 3066 3063 3061 3070 3079 3083 3085 3084 3085 3090 3093 3095 3098 3102 3105 3109 3111 3113 3116 3119 3123 3126 3128 3130 3132 3133 3135 3137 3137 3139 3142 3143 3145 3147 3148 3149 3149 3150 3152 3154 3155 3155 3158 3160 3157 3156 3156 3157 3161 3162 3163 3165 3165 3166 3167 3167 3168 3169 3169 3170 3171 3172
2992 2993 2995 2997 2998 3000 3002 3004 3007 3010 3014 3017 3022 3027 3032 3036 3041 3045 3048 3051 3054 3056 3058 3061 3060 3062 3061 3056 3061 3070 3076 3081 3080 3078 3082 3087 3090 3093 3095 3098 3102 3105 3108 3110 3113 3117 3119 3122 3125 3127 3130 3131 3132 3134 3134 3136 3139 3139 3142 3143 3145 3145 3142 3145 3149 3150 3151 3152 3155 3158 3151 3149 3153 3155 3160 3160 3160 3162 3163 3164 3165 3166 3166 3166 3167 3167 3168 3169
2988 2989 2991 2993 2995 2996 2998 3001 3003 3007 3010 3013 3017 3022 3027 3032 3036 3040 3045 3048 3051 3053 3055 3057 3057 3057 3055 3054 3060 3067 3072 3076 3073 3073 3079 3083 3087 3091 3092 3095 3098 3101 3105 3107 3110 3113 3116 3119 3122 3125 3127 3127 3128 3130 3132 3134 3136 3137 3138 3139 3141 3139 3135 3141 3146 3146 3148 3148 3153 3155 3145 3144 3150 3153 3156 3157 3157 3158 3159 3160 3162 3163 3164 3164 3164 3164 3165 3166
2985 2985 2987 2989 2991 2993 2995 2997 2999 3003 3005 3009 3013 3017 3022 3028 3032 3037 3040 3044 3048 3050 3052 3053 3051 3051 3050 3051 3056 3063 3067 3066 3066 3072 3076 3078 3084 3087 3088 3091 3095 3098 3101 3104 3106 3110 3113 3115 3118 3121 3122 3124 3125 3126 3128 3130 3132 3133 3134 3133 3134 3133 3131 3137 3142 3142 3144 3146 3150 3150 3141 3140 3147 3150 3153 3154 3154 3154 3155 3156 3158 3159 3161 3161 3161 3161 3162 3163
2981 2982 2983 2985 2988 2989 2991 2993 2996 2999 3001 3005 3009 3013 3018 3023 3028 3033 3036 3040 3044 3046 3048 3047 3045 3047 3046 3046 3053 3058 3059 3060 3066 3071 3073 3076 3080 3083 3086 3088 3092 3095 3098 3101 3103 3105 3109 3111 3114 3116 3118 3120 3121 3122 3124 3126 3127 3128 3128 3127 3127 3128 3129 3133 3136 3138 3141 3143 3145 3144 3139 3137 3143 3147 3150 3151 3151 3152 3151 3153 3154 3156 3157 3158 3158 3159 3159 3160
2978 2979 2980 2982 2984 2986 2988 2990 2992 2995 2998 3001 3005 3009 3013 3019 3024 3029 3032 3035 3038 3041 3043 3042 3043 3045 3041 3041 3048 3051 3053 3059 3066 3069 3070 3073 3075 3079 3083 3085 3088 3091 3094 3098 3100 3102 3105 3106 3109 3111 3113 3115 3117 3119 3121 3120 3119 3121 3122 3122 3122 3123 3125 3128 3131 3134 3137 3139 3140 3140 3137 3135 3140 3144 3146 3148 3148 3148 3148 3149 3151 3152 3154 3155 3155 3156 3156 3156
2975 2976 2976 2978 2980 2983 2985 2987 2989 2992 2995 2998 3002 3006 3010 3015 3020 3023 3026 3030 3033 3037 3037 3037 3039 3038 3035 3037 3042 3045 3050 3056 3062 3065 3066 3067 3070 3074 3078 3081 3084 3088 3091 3095 3096 3098 3100 3102 3104 3106 3108 3109 3111 3113 3111 3107 3108 3112 3115 3117 3118 3120 3121 3122 3127 3131 3133 3134 3136 3137 3133 3132 3137 3141 3143 3145 3145 3145 3145 3146 3147 3149 3150 3151 3152 3152 3153 3153
2971 2972 2973 2975 2977 2979 2982 2983 2986 2988 2991 2995 2998 3002 3006 3011 3014 3016 3019 3023 3025 3026 3026 3027 3028 3029 3030 3034 3037 3041 3047 3052 3056 3059 3060 3062 3066 3068 3072 3078 3081 3084 3087 3089 3092 3093 3095 3097 3099 3099 3100 3101 3102 3102 3100 3101 3107 3112 3114 3114 3115 3117 3118 3119 3125 3129 3131 3131 3131 3131 3129 3129 3132 3136 3138 3141 3142 3141 3141 3142 3143 3145 3147 3148 3148 3149 3149 3149
2966 2968 2969 2971 2974 2976 2978 2980 2982 2985 2987 2991 2994 2997 2999 3002 3005 3006 3010 3013 3016 3018 3020 3021 3023 3026 3029 3030 3032 3037 3041 3046 3048 3051 3054 3057 3060 3063 3068 3074 3078 3081 3082 3084 3087 3089 3091 3091 3090 3090 3092 3094 3097 3098 3100 3106 3112 3114 3114 3114 3114 3115 3116 3118 3122 3126 3129 3128 3126 3127 3126 3125 3128 3130 3134 3138 3139 3137 3137 3138 3139 3141 3143 3144 3145 3145 3146 3146
2962 2964 2965 2968 2970 2972 2974 2976 2979 2981 2984 2986 2989 2990 2990 2993 2996 2998 3004 3008 3012 3016 3018 3019 3023 3026 3027 3028 3030 3032 3036 3041 3043 3047 3052 3055 3058 3061 3064 3069 3072 3074 3077 3081 3084 3086 3087 3085 3084 3087 3090 3094 3097 3099 3103 3107 3110 3111 3111 3112 3113 3113 3113 3116 3120 3123 3127 3125 3122 3124 3122 3120 3123 3126 3130 3133 3134 3132 3133 3134 3135 3137 3139 3140 3141 3142 3143 3144
2958 2959 2961 2964 2966 2968 2971 2973 2975 2978 2980 2981 2983 2983 2986 2991 2995 2999 3004 3006 3008 3012 3014 3016 3019 3022 3026 3027 3027 3029 3031 3035 3039 3043 3048 3051 3054 3057 3060 3064 3067 3069 3074 3078 3080 3082 3082 3080 3082 3086 3090 3094 3096 3098 3101 3104 3106 3107 3108 3110 3109 3109 3111 3114 3116 3119 3124 3122 3119 3121 3119 3115 3118 3122 3124 3127 3128 3128 3129 3130 3131 3133 3134 3135 3137 3138 3139 3140
2954 2956 2957 2959 2962 2965 2967 2969 2972 2973 2974 2975 2977 2980 2985 2991 2996 3000 3004 3003 3004 3008 3009 3010 3013 3016 3021 3022 3023 3026 3027 3030 3035 3038 3043 3046 3048 3052 3056 3059 3063 3067 3070 3072 3074 3076 3075 3075 3080 3086 3089 3091 3093 3095 3098 3100 3102 3103 3104 3105 3104 3106 3109 3110 3112 3116 3120 3120 3118 3118 3115 3111 3114 3117 3117 3120 3123 3124 3125 3125 3126 3127 3129 3131 3132 3134 3135 3136
2950 2952 2953 2955 2958 2960 2964 2967 2967 2967 2969 2971 2973 2978 2985 2989 2993 2997 3001 3001 3000 3002 3005 3008 3010 3012 3018 3020 3021 3023 3024 3028 3033 3036 3040 3042 3044 3049 3052 3056 3061 3063 3065 3067 3070 3071 3070 3074 3080 3083 3086 3087 3089 3092 3095 3097 3097 3098 3100 3100 3101 3104 3106 3107 3110 3114 3117 3117 3116 3117 3113 3106 3107 3109 3109 3114 3117 3118 3120 3120 3120 3121 3123 3126 3127 3128 3130 3132
2945 2947 2949 2952 2954 2957 2961 2961 2961 2963 2966 2968 2971 2976 2982 2986 2991 2996 3000 2999 2995 2996 3002 3004 3005 3008 3015 3018 3017 3019 3023 3026 3031 3034 3038 3039 3041 3045 3048 3053 3057 3058 3061 3065 3068 3068 3069 3074 3078 3080 3082 3084 3086 3088 3090 3092 3093 3093 3094 3096 3099 3102 3104 3107 3109 3112 3114 3112 3112 3115 3111 3099 3099 3103 3104 3109 3112 3113 3115 3116 3115 3117 3118 3120 3121 3123 3125 3127
2941 2942 2945 2947 2950 2953 2955 2954 2956 2961 2962 2964 2968 2974 2979 2984 2989 2994 2998 2997 2989 2989 2994 2995 2997 3002 3009 3012 3014 3019 3021 3022 3028 3032 3034 3037 3040 3043 3045 3049 3051 3054 3058 3062 3064 3064 3066 3072 3075 3076 3078 3080 3083 3084 3085 3090 3091 3088 3089 3093 3097 3099 3103 3105 3106 3108 3108 3106 3108 3112 3109 3098 3095 3098 3100 3104 3106 3107 3110 3111 3111 3113 3114 3115 3116 3118 3120 3122
2937 2938 2940 2943 2946 2948 2948 2948 2953 2957 2958 2961 2967 2972 2977 2982 2987 2991 2996 2993 2981 2980 2986 2988 2991 2997 3002 3007 3011 3015 3015 3017 3025 3028 3029 3034 3037 3040 3042 3044 3047 3050 3055 3059 3060 3058 3061 3066 3069 3070 3074 3076 3077 3078 3081 3086 3087 3083 3086 3092 3094 3096 3099 3100 3103 3103 3103 3104 3106 3107 3108 3102 3092 3091 3096 3099 3101 3101 3103 3105 3106 3108 3109 3110 3112 3114 3116 3117
2932 2934 2936 2939 2941 2943 2944 2946 2950 2953 2955 2960 2965 2970 2974 2979 2983 2988 2991 2984 2972 2973 2979 2982 2989 2994 2998 3004 3007 3009 3011 3015 3020 3022 3026 3031 3034 3037 3038 3040 3044 3047 3051 3054 3053 3055 3058 3060 3062 3066 3069 3070 3072 3075 3079 3082 3082 3083 3087 3090 3092 3094 3094 3097 3099 3099 3101 3102 3100 3100 3105 3102 3088 3085 3092 3094 3095 3095 3095 3098 3101 3103 3105 3106 3108 3110 3112 3113
2928 2930 2932 2935 2937 2939 2941 2943 2947 2951 2954 2958 2964 2968 2972 2976 2980 2984 2983 2974 2966 2968 2973 2977 2985 2989 2992 2998 3003 3006 3010 3013 3016 3020 3024 3027 3030 3034 3034 3037 3042 3046 3049 3051 3052 3055 3057 3058 3062 3065 3066 3067 3070 3074 3078 3079 3079 3083 3086 3087 3090 3091 3091 3094 3094 3095 3098 3094 3092 3095 3099 3097 3085 3080 3086 3088 3086 3087 3089 3093 3096 3098 3101 3102 3104 3105 3107 3109
2924 2926 2928 2930 2932 2933 2936 2938 2942 2948 2952 2956 2960 2965 2969 2972 2974 2976 2970 2963 2963 2966 2968 2972 2977 2980 2984 2992 2998 3003 3008 3010 3013 3018 3021 3023 3027 3030 3032 3036 3041 3044 3047 3050 3052 3054 3055 3056 3060 3062 3062 3065 3069 3073 3075 3077 3079 3083 3083 3084 3088 3088 3088 3089 3089 3092 3093 3085 3085 3090 3093 3094 3084 3073 3077 3080 3078 3082 3085 3088 3091 3093 3095 3097 3099 3100 3102 3104
2920 2922 2924 2926 2927 2929 2932 2934 2939 2945 2949 2952 2956 2960 2964 2966 2967 2963 2956 2957 2963 2964 2964 2967 2971 2975 2980 2984 2990 2998 3004 3007 3009 3012 3015 3019 3023 3025 3029 3032 3036 3042 3045 3046 3047 3050 3052 3053 3055 3058 3059 3063 3067 3070 3071 3074 3078 3080 3080 3082 3085 3085 3085 3085 3085 3087 3084 3078 3081 3085 3087 3090 3078 3064 3068 3074 3075 3079 3081 3082 3085 3088 3090 3092 3093 3095 3096 3098
2916 2918 2920 2922 2924 2926 2928 2931 2938 2943 2945 2948 2952 2954 2958 2960 2956 2952 2952 2959 2961 2956 2957 2963 2966 2970 2976 2981 2987 2991 2996 3000 3004 3007 3009 3012 3016 3018 3020 3022 3026 3032 3037 3039 3042 3045 3047 3047 3051 3054 3055 3058 3063 3065 3068 3071 3074 3076 3078 3081 3082 3082 3082 3080 3079 3080 3076 3073 3076 3080 3082 3079 3069 3061 3065 3069 3072 3075 3076 3078 3080 3082 3084 3086 3088 3089 3091 3093
2912 2914 2915 2917 2919 2922 2925 2929 2936 2940 2941 2944 2948 2950 2953 2951 2944 2944 2952 2956 2954 2952 2956 2960 2963 2967 2971 2976 2982 2987 2993 2996 2999 3004 3007 3010 3012 3014 3017 3019 3021 3024 3028 3033 3038 3042 3045 3046 3049 3050 3050 3053 3056 3058 3060 3062 3065 3067 3068 3072 3074 3075 3075 3072 3072 3073 3071 3070 3071 3076 3077 3069 3063 3062 3062 3064 3067 3071 3074 3075 3076 3077 3079 3081 3083 3084 3086 3086
2908 2909 2910 2912 2915 2919 2922 2926 2932 2935 2937 2941 2944 2946 2947 2942 2939 2944 2949 2949 2951 2953 2954 2957 2962 2967 2968 2969 2975 2982 2989 2994 2996 3000 3004 3007 3009 3011 3014 3018 3020 3023 3026 3030 3033 3036 3039 3038 3039 3042 3043 3046 3048 3049 3052 3055 3059 3060 3062 3066 3066 3066 3067 3066 3066 3067 3066 3068 3069 3072 3071 3062 3058 3059 3058 3060 3064 3069 3071 3071 3072 3073 3074 3077 3078 3079 3080 3081
2903 2904 2906 2908 2911 2914 2918 2923 2927 2931 2933 2937 2941 2940 2938 2937 2939 2942 2944 2947 2951 2951 2952 2957 2961 2964 2969 2971 2974 2978 2983 2988 2993 2997 2999 3002 3004 3005 3008 3011 3015 3019 3022 3025 3028 3030 3032 3029 3030 3035 3038 3041 3043 3046 3050 3054 3057 3059 3063 3065 3061 3062 3064 3063 3062 3062 3064 3065 3064 3065 3062 3055 3055 3056 3056 3058 3060 3064 3066 3067 3069 3070 3071 3073 3074 3074 3075 3076
2899 2900 2902 2904 2907 2911 2915 2919 2924 2927 2929 2933 2936 2933 2932 2935 2938 2939 2942 2946 2948 2947 2950 2956 2956 2959 2965 2970 2972 2976 2981 2983 2987 2992 2996 2999 3002 3003 3005 3006 3009 3012 3015 3018 3021 3024 3027 3026 3027 3033 3035 3038 3041 3044 3047 3049 3052 3055 3057 3055 3055 3059 3062 3061 3060 3059 3062 3061 3055 3056 3055 3052 3055 3054 3053 3056 3056 3057 3061 3063 3065 3066 3068 3070 3069 3070 3071 3072
2895 2897 2899 2901 2904 2908 2913 2917 2921 2924 2927 2930 2930 2929 2931 2934 2936 2939 2941 2943 2946 2948 2948 2950 2952 2955 2959 2965 2969 2973 2978 2982 2985 2988 2992 2996 2999 3000 3002 3004 3007 3008 3011 3014 3016 3018 3021 3022 3024 3029 3032 3034 3038 3043 3046 3047 3049 3050 3049 3051 3055 3058 3058 3059 3059 3058 3060 3057 3050 3050 3049 3049 3052 3050 3049 3052 3052 3052 3056 3059 3060 3062 3064 3065 3065 3066 3067 3068
2893 2895 2897 2898 2902 2907 2911 2914 2918 2921 2924 2927 2927 2927 2930 2932 2934 2937 2940 2942 2945 2947 2947 2947 2949 2952 2955 2959 2964 2969 2974 2978 2981 2985 2989 2992 2994 2995 2998 3001 3003 3005 3009 3013 3015 3017 3020 3022 3023 3025 3029 3031 3035 3040 3042 3044 3046 3046 3047 3050 3052 3051 3052 3054 3054 3054 3054 3052 3047 3045 3044 3042 3043 3044 3047 3048 3047 3048 3051 3054 3056 3058 3059 3060 3061 3063 3064 3064
2891 2893 2894 2897 2901 2906 2909 2912 2915 2919 2922 2922 2922 2924 2926 2929 2932 2935 2938 2941 2942 2943 2945 2946 2947 2950 2953 2955 2958 2964 2968 2972 2975 2980 2984 2987 2989 2990 2993 2996 2998 3001 3005 3010 3013 3015 3018 3021 3021 3022 3026 3029 3032 3034 3035 3037 3040 3042 3045 3045 3044 3045 3046 3046 3047 3047 3047 3046 3044 3042 3040 3035 3034 3040 3045 3043 3043 3046 3047 3050 3052 3053 3055 3057 3058 3059 3060 3061
2890 2891 2893 2896 2900 2904 2907 2910 2914 2916 2918 2918 2919 2922 2924 2926 2929 2933 2936 2939 2940 2939 2941 2944 2945 2946 2950 2953 2955 2958 2963 2967 2971 2975 2978 2981 2983 2986 2989 2993 2994 2997 3002 3007 3011 3014 3016 3018 3019 3020 3023 3025 3026 3026 3026 3028 3031 3034 3036 3037 3038 3041 3042 3041 3040 3041 3042 3042 3039 3037 3034 3030 3030 3037 3040 3039 3040 3042 3044 3046 3049 3050 3052 3053 3055 3056 3056 3057
2889 2890 2892 2895 2898 2901 2905 2908 2911 2913 2915 2916 2918 2920 2923 2924 2927 2931 2934 2935 2937 2938 2939 2942 2944 2943 2945 2950 2953 2955 2960 2964 2968 2971 2974 2976 2978 2979 2982 2985 2988 2992 2998 3004 3007 3010 3013 3014 3015 3017 3017 3018 3019 3020 3022 3024 3027 3029 3029 3030 3033 3037 3039 3040 3038 3036 3037 3037 3035 3033 3031 3028 3030 3034 3036 3036 3038 3040 3042 3043 3044 3047 3048 3049 3051 3051 3052 3052
2889 2890 2892 2894 2896 2899 2903 2906 2908 2911 2913 2914 2916 2918 2920 2923 2925 2928 2931 2932 2934 2936 2938 2941 2942 2942 2943 2945 2949 2952 2955 2959 2962 2966 2968 2969 2971 2973 2976 2980 2984 2989 2995 2998 3001 3005 3009 3011 3012 3014 3014 3016 3018 3019 3021 3024 3026 3028 3027 3029 3032 3033 3036 3036 3033 3033 3034 3032 3031 3032 3030 3028 3030 3033 3035 3036 3036 3037 3039 3040 3041 3043 3044 3045 3046 3047 3047 3048
2889 2890 2892 2894 2896 2898 2901 2904 2906 2909 2910 2911 2914 2917 2919 2921 2923 2926 2928 2929 2931 2933 2936 2938 2939 2941 2942 2944 2947 2950 2952 2955 2958 2959 2962 2964 2967 2971 2975 2979 2983 2988 2993 2996 2998 3003 3007 3008 3009 3012 3013 3015 3017 3017 3019 3021 3023 3024 3024 3026 3028 3027 3029 3029 3028 3031 3029 3025 3028 3029 3025 3025 3029 3031 3033 3034 3033 3034 3035 3036 3037 3039 3040 3042 3043 3043 3044 3044
2889 2890 2890 2892 2895 2897 2899 2900 2902 2905 2907 2909 2912 2914 2917 2919 2921 2923 2925 2926 2929 2932 2933 2935 2937 2938 2940 2943 2946 2948 2950 2954 2955 2957 2960 2963 2966 2970 2975 2978 2981 2984 2987 2989 2991 2995 3000 3001 3004 3008 3011 3014 3015 3016 3016 3016 3017 3017 3018 3020 3020 3021 3024 3024 3026 3029 3023 3020 3026 3025 3019 3021 3026 3028 3029 3030 3030 3030 3031 3032 3033 3034 3037 3038 3039 3039 3040 3040
2888 2888 2890 2891 2893 2895 2896 2898 2900 2903 2905 2907 2909 2911 2914 2916 2918 2921 2923 2925 2928 2930 2931 2933 2935 2937 2939 2942 2945 2948 2950 2951 2953 2956 2960 2962 2965 2969 2973 2975 2978 2980 2982 2985 2989 2992 2994 2996 2998 3001 3004 3006 3007 3006 3006 3007 3008 3010 3011 3013 3014 3016 3018 3019 3022 3022 3017 3017 3022 3018 3014 3019 3023 3024 3024 3025 3026 3025 3026 3028 3028 3030 3032 3033 3034 3035 3035 3036
2887 2888 2889 2891 2892 2893 2895 2897 2900 2902 2903 2906 2908 2909 2911 2914 2916 2919 2921 2923 2926 2928 2929 2930 2933 2936 2938 2940 2944 2948 2950 2951 2952 2954 2956 2959 2962 2965 2969 2972 2975 2978 2981 2985 2988 2991 2992 2993 2993 2993 2993 2994 2994 2996 2998 3001 3003 3004 3006 3007 3009 3012 3014 3017 3018 3015 3015 3018 3016 3012 3015 3019 3020 3020 3019 3020 3022 3021 3022 3023 3024 3025 3026 3027 3028 3029 3030 3031
2886 2887 2888 2889 2890 2892 2894 2896 2899 2901 2902 2905 2906 2906 2908 2911 2914 2917 2919 2921 2924 2926 2927 2928 2929 2932 2934 2937 2941 2945 2948 2951 2952 2952 2954 2956 2958 2962 2967 2970 2973 2976 2980 2983 2985 2987 2989 2988 2988 2989 2988 2989 2992 2995 2998 3000 3001 3002 3003 3004 3007 3009 3012 3013 3011 3010 3015 3016 3009 3009 3016 3016 3015 3017 3015 3015 3018 3018 3018 3018 3018 3018 3019 3020 3021 3022 3024 3025
2885 2886 2888 2888 2888 2888 2890 2892 2895 2897 2900 2903 2904 2905 2906 2907 2910 2914 2916 2919 2922 2923 2924 2925 2927 2929 2931 2933 2937 2941 2945 2949 2950 2950 2952 2954 2956 2960 2964 2968 2971 2974 2977 2979 2981 2983 2984 2984 2984 2985 2986 2988 2991 2994 2996 2998 2999 3000 3002 3004 3005 3007 3008 3008 3007 3008 3012 3009 3005 3009 3013 3011 3011 3014 3012 3012 3014 3014 3013 3013 3012 3012 3013 3014 3015 3017 3018 3018
2884 2886 2887 2888 2888 2887 2887 2890 2893 2895 2897 2900 2902 2903 2904 2905 2908 2910 2913 2916 2919 2920 2921 2921 2924 2927 2930 2932 2936 2938 2940 2943 2943 2945 2947 2950 2953 2955 2959 2963 2966 2970 2973 2975 2976 2979 2981 2980 2981 2984 2985 2986 2988 2991 2993 2995 2996 2997 3000 3001 3002 3003 3004 3004 3004 3006 3007 3005 3005 3008 3007 3004 3008 3012 3010 3008 3009 3008 3007 3007 3006 3007 3008 3009 3010 3012 3012 3013
2884 2885 2886 2887 2887 2887 2889 2891 2893 2894 2896 2898 2899 2900 2902 2904 2906 2909 2911 2912 2915 2917 2917 2918 2920 2924 2928 2931 2934 2935 2936 2937 2938 2940 2944 2947 2949 2951 2954 2956 2959 2964 2969 2971 2973 2976 2977 2978 2980 2983 2984 2983 2985 2988 2990 2991 2993 2994 2996 2998 2999 3000 3000 3000 3000 3001 3001 3000 3002 3004 3001 2999 3003 3008 3007 3004 3003 3002 3000 3000 3001 3002 3003 3004 3005 3007 3008 3008
2883 2884 2885 2885 2886 2887 2888 2890 2891 2893 2894 2896 2896 2897 2900 2902 2904 2908 2910 2911 2913 2914 2914 2916 2919 2923 2927 2930 2931 2932 2935 2938 2939 2941 2944 2945 2946 2948 2951 2953 2956 2960 2964 2967 2970 2971 2973 2976 2978 2980 2982 2980 2980 2984 2986 2988 2990 2991 2991 2992 2993 2993 2993 2993 2994 2995 2995 2996 2998 2998 2996 2994 2998 3004 3003 2999 2998 2996 2994 2994 2996 2997 2999 3000 3000 3001 3003 3003
2882 2883 2883 2884 2885 2887 2887 2888 2890 2891 2891 2891 2893 2895 2897 2899 2903 2907 2909 2911 2913 2914 2914 2916 2919 2921 2925 2927 2927 2929 2934 2938 2940 2943 2945 2946 2947 2948 2950 2953 2955 2958 2960 2963 2966 2968 2970 2972 2973 2977 2978 2976 2978 2982 2983 2986 2988 2985 2982 2983 2984 2985 2986 2987 2988 2990 2991 2992 2993 2991 2990 2991 2994 2998 2997 2993 2991 2990 2989 2990 2992 2993 2994 2994 2994 2995 2997 2997